Flag Weather past 2 weeks in Sevierville, Tennessee, U.S.A.

Now
52 °F

Sunny.


Feels Like: 46 °F
Forecast: 32 / 47 °F
Wind: 18 mph from West

Location: McGhee Tyson Airport

Current Time: Nov 20, 2014 at 4:33:33 PM

Latest Report: Nov 20, 2014 at 3:53 PM


Visibility: 10 mi

Pressure: 30.12 "Hg

Humidity: 35%

Dew point: 25 °F

Location of SeviervilleLocation

Historic Weather in Sevierville — Graph

°F

Sevierville temperature yesterday

Maximum temperature yesterday: 45 °F (at 3:53 PM)
Minimum temperature yesterday: 18 °F (at 5:53 AM)
Average temperature yesterday: 33 °F

Past Weeks' High & Low Weather Summary

 TemperatureHumidityPressure
High68 °F (Nov 11, 3:53 PM)100% (Nov 6, 12:53 AM)30.44 "Hg (Nov 6, 12:53 AM)
Low18 °F (Nov 19, 5:53 AM)33% (Nov 18, 4:53 PM)29.70 "Hg (Nov 17, 7:53 AM)
Average41 °F69%30.12 "Hg
* Reported Nov 5 2:53 PM — Nov 20 2:53 PM, Sevierville, Weather by CustomWeather, © 2014

Note: Actual official high and low records may vary slightly from our data, if they occured in-between our weather recording intervals... More about our weather records

Advertising

Sevierville weather history for previous 24 hours

 ConditionsComfort  
Time TempWeatherWind HumidityBarometerVisibility
2:53 PM
Nov 20
52 °FPassing clouds.15 mph40%30.12 "Hg10 mi
1:53 PM51 °FPassing clouds.14 mph42%30.14 "Hg10 mi
12:53 PM50 °FPassing clouds.17 mph44%30.16 "Hg10 mi
11:53 AM50 °FPassing clouds.14 mph46%30.19 "Hg10 mi
10:53 AM48 °FPassing clouds.15 mph48%30.20 "Hg10 mi
9:53 AM45 °FPassing clouds.14 mph51%30.20 "Hg10 mi
8:53 AM42 °FPassing clouds.10 mph53%30.19 "Hg10 mi
7:53 AM38 °FPassing clouds.13 mph58%30.18 "Hg10 mi
6:53 AM37 °FPassing clouds.8 mph54%30.16 "Hg10 mi
5:53 AM39 °FClear.10 mph53%30.16 "Hg10 mi
4:53 AM40 °FPassing clouds.12 mph51%30.15 "Hg10 mi
3:53 AM42 °FOvercast.15 mph47%30.15 "Hg10 mi
2:53 AM42 °FOvercast.21 mph45%30.16 "Hg10 mi
1:53 AM42 °FOvercast.18 mph45%30.17 "Hg10 mi
12:53 AM41 °FOvercast.16 mph47%30.17 "Hg10 mi
11:53 PM
Nov 19
40 °FPassing clouds.17 mph47%30.18 "Hg10 mi
10:53 PM39 °FPassing clouds.14 mph50%30.19 "Hg10 mi
9:53 PM38 °FClear.10 mph53%30.19 "Hg10 mi
8:53 PM40 °FClear.14 mph49%30.17 "Hg10 mi
7:53 PM39 °FPassing clouds.10 mph48%30.17 "Hg10 mi
6:53 PM41 °FPassing clouds.13 mph45%30.14 "Hg10 mi
5:53 PM43 °FPassing clouds.17 mph40%30.15 "Hg10 mi
4:53 PM44 °FPartly sunny.18 mph41%30.14 "Hg10 mi
Weather by CustomWeather, © 2014

See weather overviewHow to use our weather pages